Location: Krasnoyarskiy Pitomnik
(51.1333°N, 71.6167°E)
Time: 09:12:05
(UTC+00:00)

Cosmos 332 Rocket - Pass Details

Date: 22 October 2021
Orbit: 682 x 703 km, 74.0° (Epoch: 06 December)

Event Time Altitude Azimuth Distance (km) Brightness Sun altitude
Exits shadow 23:18:11 15° 340° (NNW) 1,860 5.9 -24.4°
Maximum altitude 23:22:15 70° 63° (ENE) 736 4.0 -23.8°
Drops below altitude 10° 23:27:02 10° 148° (SSE) 2,126 6.5 -23.0°
Sets 23:29:20 0° 150° (SSE) 3,036 7.4 -22.7°
